Regional Weather Roundup
Issued by NWS Charleston, SC

Current Version | Previous Version | Graphics & Text | Print | Product List | Glossary On
Versions: 1 2 3 4 5 6 7 8 9 10 11 12 13 14 15 16 17 18 19 20 21 22 23 24 25 26 27 28 29 30 31 32 33 34 35 36 37 38 39 40 41 42 43 44 45 46 47 48 49 50
000 ASUS42 KCHS 031527 RWRCHS REGIONAL WEATHER ROUNDUP NATIONAL WEATHER SERVICE CHARLESTON SC 1100 AM EDT WED JUN 03 2015 NOTE: "FAIR" INDICATES FEW OR NO CLOUDS BELOW 12,000 FEET WITH NO SIGNIFICANT WEATHER AND/OR OBSTRUCTIONS TO VISIBILITY. NOT ALL STATIONS ARE QUALITY CONTROLLED BY THE NATIONAL WEATHER SERVICE. USE DATA WITH CAUTION...ESPECIALLY DEWPOINT OBSERVATIONS. SCZ027-030-031-034>040-042>050-031600- ...SOUTHEAST SOUTH CAROLINA... CITY SKY/WX TMP DP RH WIND PRES REMARKS N CHARLESTON TSTM 69 67 93 E10 30.01S WATERFRONT PAR N/A 71 70 96 NE7 29.99R MOUNT PLEASANT RAIN 70 68 94 E3 30.03R JOHNS ISLAND LGT RAIN 70 68 94 CALM 30.02S PINOPOLIS NOT AVBL MONCKS CORNER LGT RAIN 68 66 94 E5 29.99F SUMMERVILLE LGT RAIN 68 68 100 S3 30.01S BEAUFORT MCAS CLOUDY 72 69 90 E6 29.99R BEAUFORT ARPT FAIR 72 70 94 E3 29.99R HILTON HEAD IS PTSUNNY 73 66 78 CALM 30.00R WALTERBORO CLOUDY 68 66 94 E7 30.00S ALLENDALE CLOUDY 73 68 83 VRB3 29.99S ...SOUTHERN MIDLANDS AND PEE DEE... CITY SKY/WX TMP DP RH WIND PRES REMARKS GEORGETOWN NOT AVBL KINGSTREE NOT AVBL ORANGEBURG CLOUDY 71 66 84 E5 30.01S BARNWELL CLOUDY 73 68 83 E6 30.01S AIKEN CLOUDY 70 61 73 NE6 30.05S MANNING FAIR 68 64 88 CALM 30.01S COLUMBIA CLOUDY 71 63 75 NE3 30.02S SUMTER CLOUDY 70 65 85 NE6 30.01R FLORENCE CLOUDY 69 66 90 N7 30.03R MYRTLE BEACH CLOUDY 73 68 83 VRB6 30.04F N MYRTLE BEACH LGT RAIN 72 68 87 N3 30.03S $$ GAZ063-065-086>088-099>101-113>116-118-119-134>141-150-031600- ...SOUTHEAST GEORGIA... CITY SKY/WX TMP DP RH WIND PRES REMARKS SAVANNAH ARPT PTSUNNY 77 68 73 CALM 29.98S HUNTER AAF MOSUNNY 80 69 70 CALM 29.96S FORT STEWART SUNNY 80 68 67 SW3 29.95F STATESBORO MOSUNNY 79 71 78 SE5 29.98R SYLVANIA PTSUNNY 81 71 71 E8 29.99S CLAXTON FAIR 81 70 69 CALM 29.97S ...CSRA...CENTRAL AND FAR SOUTHEAST GEORGIA... CITY SKY/WX TMP DP RH WIND PRES REMARKS THOMSON MOSUNNY 76 67 72 CALM 30.06S AUGUSTA-BUSH CLOUDY 75 64 68 NE8 30.00F AUGUSTA-DANIEL MOSUNNY 74 62 66 VRB5 30.02S SWAINSBORO FAIR 81 70 69 CALM 30.00R VIDALIA MOSUNNY 77 68 73 CALM 29.99R EASTMAN CLOUDY 79 74 86 CALM 30.00S HAZLEHURST FAIR 79 72 78 CALM 29.97S ALMA MOSUNNY 79 70 74 N6 29.98S WAYCROSS PTSUNNY 79 72 79 N5 29.99R JESUP PTSUNNY 81 72 74 CALM 29.98S BAXLEY CLOUDY 79 72 78 CALM 29.98S BRUNSWICK MOSUNNY 81 72 74 CALM 29.98F SAINT SIMONS NOT AVBL $$ SCZ027-028-034-036>038-045-046-048>050-GAZ119-141-031600- ...LAKE AND SUPPLEMENTAL COASTAL OBSERVATIONS... STATION/POSITION TIME TEMP WIND PRES WAVE SWELL AIR SEA DIR/SP/G HT/PER HT/PER/DIR (UTC) (F) (DEG/KT/KT) (MB) (FT/S) (FT/S/D) UPR LAKE MARION NOT AVBL WINYAH BAY 1445 69 90/ 2 1016.0R LAKE MURRAY 1400 69 60/ 2/ 4 1016.3R ACE BASIN NERRS NOT AVBL FORT PULASKI 1500 75 81 70/ 6/ 7 1015.8R SAPELO ISLAND 1500 80 340/ 6 1015.0S $$ ANZ835-935-AMZ111-154-330-350-352-354-370-450-454-472-031600- ...C-MAN AND BUOY OBSERVATIONS... STATION/POSITION TIME TEMP WIND PRES WAVE SWELL AIR SEA DIR/SP/G HT/PER HT/PER/DIR (UTC) (F) (DEG/KT/KT) (MB) (FT/S) (FT/S/D) BUOY 41004 1450 74 80 20/ 6/ 8 1016.2R 2/ 8 2/ 8 BUOY 41008 1450 76 79 270/ 4/ 6 1015.4R 2/ 9 2/100/ 9 FOLLY BEACH CMAN 1500 69 40/ 16/ 22 1016.3R CAPERS NEARSHORE 1408 72 40/ 8/ 10 1016.3R FRIPP NEARSHORE 1400 70 360/ 10/ 12 1014.5F STATION/POSITION TIME TEMP WIND PRES WAVE SWELL AIR SEA DIR/SP/G HT/PER HT/PER/DIR (UTC) (F) (DEG/KT/KT) (MB) (FT/S) (FT/S/D) 5E ST. MARYS GA 1421 80 N/A 2/ 9 FRYING PAN BUOY 1450 74 76 60/ 14/ 17 1016.7R 3/ 8 2/120/ 8 BUOY 41025 1450 77 81 280/ 4/ 6 1017.5R 3/ 8 2/ 90/ 8 CAPE LOOKOUT NC 1500 71 350/ 6/ 7 1017.8R BUOY 41002 1450 78 76 170/ 8/ 8 1017.2R 3/ 9 3/120/ 9 BUOY 41010 1420 74 80 180/ 12/ 14 1015.8R ST AUGUSTINE FL 1500 74 75 50/ 4/ 5 1016.3R $$

USA.gov is the U.S. government's official web portal to all federal, state and local government web resources and services.